Flag Weather past 2 weeks in Mannheim, Baden-Württemberg, Germany

Now
45 °F

Overcast.


Feels Like: 45 °F
Forecast: 35 / 44 °F
Wind: 2 mph from Northeast

Location: Baden Wurttemberg - Neuostheim

Current Time: Nov 27, 2014 at 1:27:25 AM

Latest Report: Nov 26, 2014 at 10:20 PM


Visibility: N/A

Pressure: 29.95 "Hg

Humidity: 81%

Dew point: 39 °F

Location of MannheimLocation

Historic Weather in Mannheim — Graph

°F

Mannheim temperature yesterday

Maximum temperature yesterday: 45 °F (at 11:20 AM)
Minimum temperature yesterday: 43 °F (at 5:20 AM)
Average temperature yesterday: 44 °F

Past Weeks' High & Low Weather Summary

 TemperatureHumidityPressure
High55 °F (Nov 14, 11:50 AM)100% (Nov 12, 5:50 AM)30.33 "Hg (Nov 12, 5:50 AM)
Low32 °F (Nov 21, 6:50 AM)66% (Nov 21, 11:50 AM)29.59 "Hg (Nov 15, 4:50 PM)
Average47 °F88%29.97 "Hg
* Reported Nov 12 5:20 AM — Nov 26 10:20 PM, Mannheim, Weather by CustomWeather, © 2014

Note: Actual official high and low records may vary slightly from our data, if they occured in-between our weather recording intervals... More about our weather records

Advertising

Mannheim weather history for previous 24 hours

 ConditionsComfort  
Time TempWeatherWind HumidityBarometerVisibility
10:20 PM
Nov 26
45 °FOvercast.2 mph81%29.95 "HgN/A
9:50 PM45 °FOvercast.2 mph81%29.95 "HgN/A
9:20 PM45 °FMostly cloudy.3 mph81%29.95 "HgN/A
8:50 PM45 °FOvercast.2 mph81%29.95 "HgN/A
8:20 PM45 °FOvercast.3 mph76%29.98 "HgN/A
7:50 PM45 °FOvercast.3 mph76%29.98 "HgN/A
7:20 PM45 °FOvercast.2 mph81%29.98 "HgN/A
6:50 PM45 °FMostly cloudy.2 mph81%29.98 "HgN/A
6:20 PM45 °FMostly cloudy.3 mph81%29.98 "HgN/A
5:50 PM45 °FMostly cloudy.5 mph81%29.98 "HgN/A
5:20 PM45 °FOvercast.1 mph76%29.98 "HgN/A
4:50 PM45 °FOvercast.No wind76%29.98 "HgN/A
4:20 PM45 °FOvercast.2 mph76%29.98 "HgN/A
3:50 PM45 °FOvercast.2 mph76%29.98 "HgN/A
3:20 PM45 °FOvercast.3 mph81%29.98 "HgN/A
2:50 PM45 °FOvercast.1 mph76%29.98 "HgN/A
2:20 PM45 °FOvercast.2 mph76%30.01 "HgN/A
1:50 PM45 °FOvercast.3 mph76%30.01 "HgN/A
1:20 PM45 °FOvercast.No wind76%30.01 "HgN/A
12:50 PM45 °FLight rain. Overcast.No wind76%30.01 "HgN/A
12:20 PM45 °FOvercast.2 mph76%30.01 "HgN/A
11:50 AM45 °FOvercast.2 mph76%30.04 "HgN/A
11:20 AM45 °FOvercast.3 mph76%30.04 "HgN/A
10:50 AM43 °FOvercast.3 mph76%30.04 "HgN/A
10:20 AM43 °FOvercast.3 mph76%30.04 "HgN/A
9:50 AM43 °FOvercast.2 mph81%30.04 "HgN/A
9:20 AM43 °FOvercast.1 mph81%30.04 "HgN/A
8:50 AM43 °FOvercast.2 mph81%30.04 "HgN/A
8:20 AM43 °FOvercast.2 mph81%30.04 "HgN/A
7:50 AM43 °FMostly cloudy.5 mph81%30.04 "HgN/A
7:20 AM43 °FOvercast.3 mph76%30.04 "HgN/A
6:20 AM43 °FOvercast.3 mph76%30.07 "HgN/A
5:50 AM43 °FOvercast.1 mph81%30.07 "HgN/A
5:20 AM43 °FOvercast.5 mph76%30.07 "HgN/A
Weather by CustomWeather, © 2014

See weather overviewHow to use our weather pages